User: anonymous
Location: Unspecified
(0.0000°N, 0.0000°E)
Time: 23:37:09
(UTC+02:00)
Language:

ARIANE 5 R/B - Orbit

View from above orbital plane
View from above orbital plane
View from above satellite
View from above satellite

Ground track
Ground track

The orbit data is extracted from the following two-line orbital elements,

1 28379U 04027B   14260.40520865 -.00000011  00000-0 -17034-2 0  6971
2 28379 007.3176 311.2572 7286430 121.4815 358.3391 02.07921092 77253
Epoch (UTC): 17 September 2014 09:43:30
Eccentricity: 0.7286430
inclination: 7.3176°
perigee height: 658 km
apogee height: 38445 km
right ascension of ascending node: 311.2572°
argument of perigee: 121.4815°
revolutions per day: 2.07921092
mean anomaly at epoch: 358.3391°
orbit number at epoch: 7725

The dashed part of the orbit path shows where the satellite is in the earth's shadow,  

DLR